Wind_Speed
4 3 4 4 4 4 4 4 4 4 4 4 4 4 4 5 5 5 5 5 6 6 6 5 6 5 5 5 4 4 5 4 5 5 5 5 5 4 4 3 4 4 4
5 4 4 4 4 5 5 5 5 5 5 4 5 5 5 5 6 6 6 7 7 7 7 7 7 6 6 6 6 6 6 7 7 7 6 6 6 6 5 5 5 5 5
5 5 5 5 5 5 6 6 6 6 6 6 6 6 7 7 7 7 8 8 8 8 8 8 8 8 8 7 7 7 8 8 7 7 7 7 7 7 6 6 6 6 6
6 6 6 6 6 7 7 7 7 7 7 7 7 7 7 8 8 8 9 9 9 9 9 9 9 9 9 8 7 7 8 8 8 8 8 8 8 7 7 7 7 8 8
6 7 7 7 7 7 8 8 9 9 8 8 8 8 8 9 9 9 10 10 11 11 11 11 10 10 9 9 9 9 9 10 9 9 10 10 9 9 9 9 9 9 9
7 8 8 8 8 8 9 9 9 9 9 8 8 9 9 9 9 10 10 11 11 11 10 11 11 11 11 11 10 11 11 11 11 11 11 11 11 11 10 10 10 10 11
9 9 9 9 9 10 10 10 10 10 9 9 9 9 10 10 10 10 10 10 10 10 10 11 11 11 11 12 12 12 12 12 11 12 12 12 12 12 12 12 12 12 12
9 9 9 9 9 9 10 10 10 10 10 10 10 10 10 10 10 10 10 10 10 11 11 11 11 11 12 12 12 13 13 13 13 13 13 13 13 13 13 13 13 13 12
10 10 9 9 10 10 10 10 10 10 10 11 11 11 11 11 11 11 11 11 12 12 12 11 11 12 12 12 13 13 13 13 13 14 13 13 14 14 14 13 13 13 13
9 9 10 10 10 10 11 11 11 11 11 11 11 11 11 11 11 12 12 12 12 12 12 12 12 12 13 13 13 14 14 14 14 14 14 13 14 14 13 13 13 13 14
9 9 10 10 10 10 11 11 11 11 11 11 11 11 11 11 11 12 12 13 13 12 13 13 13 13 13 14 14 14 14 14 14 14 14 14 13 13 13 13 14 14 14
10 10 10 10 11 11 11 11 11 11 11 11 11 12 12 12 12 12 13 13 13 13 13 14 14 14 14 14 14 15 14 14 14 14 14 14 13 13 13 13 14 14 14
11 11 10 11 11 11 11 11 11 11 11 11 12 12 12 12 12 13 13 13 13 14 14 14 14 14 14 14 14 14 14 14 15 15 15 14 14 14 14 14 14 14 14
11 11 11 12 11 11 11 11 11 10 11 11 12 12 12 12 12 13 13 13 13 14 14 14 14 13 13 13 13 13 14 14 14 14 14 15 15 15 15 14 14 13 13
11 12 12 12 11 11 11 11 11 11 11 12 12 12 12 13 12 13 12 13 13 14 14 14 14 14 14 14 14 14 14 13 13 14 15 15 14 14 14 14 14 14 14
13 12 12 12 11 11 11 11 11 11 12 12 12 12 13 13 13 13 13 13 13 14 14 14 14 14 14 14 14 14 14 14 14 14 15 15 15 15 15 14 14 14 14
13 13 12 12 11 11 12 12 12 13 13 13 13 13 13 13 13 13 13 13 14 14 14 14 14 15 14 15 15 15 15 14 14 14 15 15 15 15 15 15 14 13 13
13 13 12 12 12 12 13 12 12 13 13 13 13 12 12 12 13 13 13 13 14 14 14 14 14 15 15 15 14 14 15 15 14 14 14 15 15 15 15 14 14 14 14
13 13 13 13 13 13 13 13 13 13 13 13 13 12 13 13 13 14 13 13 14 14 14 14 15 15 15 15 15 14 14 14 14 14 15 15 15 15 14 14 14 14 15
13 13 13 13 12 13 13 13 13 13 13 13 13 12 12 13 13 13 13 13 14 14 15 15 15 15 15 14 14 14 14 14 14 14 14 14 15 15 15 14 14 15 14
13 14 13 13 13 13 12 12 13 13 12 13 12 12 12 12 13 13 13 13 14 14 14 15 15 15 15 14 15 14 14 14 14 14 14 14 14 14 14 15 15 15 15
14 14 14 13 13 12 13 13 13 12 12 12 12 12 12 12 13 13 14 14 14 14 14 14 14 14 14 14 14 14 13 13 14 14 14 14 14 14 14 15 16 16 15
14 14 14 14 13 14 13 13 13 13 13 13 12 12 13 13 13 14 14 14 14 14 14 14 13 13 13 13 13 13 13 13 14 14 14 14 14 15 15 16 16 17 17
14 14 14 13 13 13 13 14 14 13 13 12 12 13 14 14 14 14 14 14 15 14 14 14 13 13 13 13 14 14 14 14 14 14 14 15 15 15 15 15 16 17 17
16 15 14 14 14 13 13 13 13 14 14 14 14 14 15 15 15 14 15 15 15 15 15 14 13 13 13 14 14 14 14 15 15 15 15 15 16 16 16 16 16 17 17
16 15 14 14 14 14 14 13 13 13 14 14 15 15 15 15 14 15 15 15 15 15 15 14 14 13 14 14 14 14 14 15 15 15 15 15 16 16 16 16 17 17 18
Wind_Direction
251 248 251 255 252 245 237 242 245 254 261 263 265 266 268 267 261 259 260 261 258 261 262 255 245 245 248 251 251 252 252 250 251 251 252 254 252 250 247 239 241 236 231
260 258 263 268 261 258 252 256 257 267 268 274 275 269 272 272 270 274 275 269 264 263 259 258 257 255 255 253 255 258 259 258 255 253 253 259 263 262 255 249 247 245 237
264 262 269 271 265 260 256 258 260 268 272 275 274 272 271 272 275 275 276 276 270 263 259 259 258 258 260 260 262 265 266 266 268 262 261 262 262 259 257 258 256 251 242
265 261 267 270 267 264 266 268 269 270 272 273 275 277 276 274 275 276 276 277 273 270 267 265 264 263 264 262 265 270 269 269 271 266 265 263 263 261 261 261 262 254 250
268 267 268 268 266 266 267 272 276 276 278 280 287 286 284 283 281 280 279 278 276 276 273 267 267 265 268 270 269 271 271 269 269 267 265 264 264 265 268 264 262 256 251
273 272 270 269 269 270 270 271 274 278 281 285 289 288 289 289 288 287 285 281 278 276 274 269 265 264 266 268 269 271 271 268 266 265 264 263 263 264 265 265 263 259 253
278 276 273 272 271 273 276 276 276 277 278 281 285 286 287 287 286 287 288 283 281 279 276 273 267 267 267 267 268 268 268 268 266 266 265 265 265 265 265 267 263 259 255
280 277 274 273 274 277 279 279 279 279 280 280 282 284 284 284 282 282 283 285 284 279 278 274 273 271 269 269 270 270 270 270 268 266 266 266 266 266 264 262 260 259 259
282 278 276 275 276 278 278 281 281 280 282 282 282 282 282 283 281 281 280 284 283 278 276 273 271 271 272 270 269 271 270 269 268 266 265 265 266 266 265 262 260 260 259
284 281 280 277 279 280 281 283 283 282 283 284 283 284 284 283 282 284 282 282 283 280 276 274 271 272 273 271 271 271 270 269 270 269 266 264 264 265 266 264 262 262 260
289 287 287 284 284 283 284 285 286 284 284 282 282 284 284 284 282 283 282 283 281 279 276 275 274 273 275 274 271 270 270 269 270 269 265 264 264 266 266 264 263 263 262
292 292 290 286 286 285 285 286 285 285 284 283 283 284 285 284 284 283 282 283 281 278 276 274 274 273 275 274 272 271 271 270 269 268 265 266 265 267 266 265 263 263 264
293 293 293 291 290 287 286 286 284 285 285 282 283 285 284 284 285 284 286 284 281 279 276 275 276 277 276 274 272 270 271 271 269 268 266 267 267 266 267 268 265 263 264
292 294 294 293 291 289 287 286 285 285 287 286 287 288 288 287 287 287 288 287 284 279 278 277 278 277 278 276 273 272 272 272 269 267 268 267 268 267 268 266 263 263 264
293 296 297 294 290 289 286 284 286 286 287 289 291 291 290 289 287 287 289 289 287 282 280 278 279 278 278 279 276 273 272 275 272 269 268 268 268 268 267 267 265 266 266
291 293 296 293 291 290 287 286 288 290 291 291 290 290 289 289 290 291 292 291 290 288 283 280 281 282 282 279 277 274 275 275 274 270 267 265 265 266 267 266 267 266 267
291 292 292 291 290 290 287 287 290 291 291 291 290 288 287 287 289 290 290 291 291 290 288 283 282 283 282 280 278 275 275 276 275 274 269 265 264 265 265 265 266 266 266
293 293 290 290 290 289 288 287 287 290 290 288 287 286 285 287 288 290 290 291 292 291 287 283 283 282 282 281 280 276 275 275 274 273 270 268 265 263 263 265 266 266 267
294 294 294 292 290 288 288 288 286 287 287 286 286 284 285 287 289 290 292 292 290 288 285 282 281 281 281 282 281 279 275 273 272 273 271 268 265 263 262 263 263 265 266
298 298 297 292 290 289 287 288 288 289 287 287 286 285 286 288 289 292 293 293 293 292 289 286 284 283 282 282 282 279 276 274 272 273 271 267 264 262 261 262 263 265 266
294 296 297 295 292 292 291 289 288 289 290 289 287 289 291 291 290 291 292 293 294 294 291 288 285 283 281 284 284 280 277 273 273 272 269 267 267 266 264 262 262 264 266
292 292 292 291 292 292 290 288 289 288 291 290 289 289 291 293 293 293 293 294 295 294 292 289 286 283 281 282 285 281 276 273 273 272 269 268 267 266 265 263 262 264 266
291 291 291 288 288 289 290 288 290 289 287 288 289 291 292 294 294 294 293 294 295 295 293 291 287 286 285 282 284 282 277 274 275 272 271 269 266 267 266 266 264 264 266
288 290 289 288 289 289 290 290 290 288 286 285 287 291 293 293 294 294 293 293 294 295 293 290 287 286 284 283 283 282 278 271 270 272 272 271 271 270 268 267 267 267 268
286 287 287 286 288 289 288 289 288 289 288 287 288 290 292 293 293 294 293 292 292 292 292 289 287 285 283 282 283 283 280 274 270 270 271 271 271 271 270 270 271 273 272
284 285 286 286 285 286 287 287 288 289 288 287 288 289 290 293 293 295 295 295 292 290 288 285 284 284 284 283 283 282 281 277 275 274 272 273 272 272 273 273 273 274 274
Height
5866 5866 5866 5866 5866 5866 5866 5866 5866 5866 5866 5866 5867 5867 5867 5867 5867 5867 5867 5868 5868 5868 5868 5868 5868 5868 5869 5869 5870 5870 5870 5870 5870 5870 5871 5871 5871 5871 5872 5872 5873 5873 5874
5865 5865 5865 5866 5866 5866 5866 5866 5866 5866 5866 5866 5866 5866 5866 5866 5866 5866 5866 5867 5867 5867 5867 5868 5868 5868 5868 5869 5869 5869 5869 5869 5869 5869 5870 5870 5870 5871 5871 5872 5872 5873 5873
5864 5865 5865 5865 5865 5865 5865 5865 5865 5865 5865 5865 5865 5865 5865 5865 5865 5865 5866 5866 5866 5866 5866 5867 5867 5867 5867 5868 5868 5868 5868 5868 5868 5868 5869 5869 5869 5869 5870 5871 5871 5872 5872
5864 5864 5864 5864 5864 5864 5865 5865 5865 5864 5864 5864 5864 5864 5864 5864 5864 5864 5865 5865 5865 5865 5865 5865 5866 5866 5866 5866 5867 5867 5867 5867 5867 5867 5868 5868 5868 5868 5869 5869 5870 5870 5871
5863 5863 5863 5863 5863 5863 5863 5863 5864 5863 5863 5863 5863 5863 5863 5863 5863 5863 5863 5863 5863 5863 5863 5864 5864 5864 5865 5865 5865 5865 5865 5865 5866 5866 5866 5867 5867 5867 5867 5868 5868 5869 5870
5862 5862 5862 5862 5862 5862 5862 5862 5862 5862 5862 5862 5862 5862 5861 5861 5861 5861 5861 5861 5861 5861 5861 5862 5862 5862 5863 5863 5863 5863 5863 5864 5864 5864 5864 5865 5865 5865 5866 5866 5867 5867 5868
5861 5861 5861 5861 5861 5861 5861 5860 5860 5860 5860 5860 5860 5860 5860 5860 5860 5860 5859 5859 5859 5859 5860 5860 5860 5860 5861 5861 5861 5861 5861 5861 5862 5862 5862 5863 5863 5863 5864 5864 5865 5865 5866
5859 5859 5859 5859 5859 5859 5859 5859 5858 5858 5858 5858 5858 5858 5858 5858 5858 5858 5858 5858 5858 5858 5858 5858 5858 5858 5859 5859 5859 5859 5859 5859 5860 5860 5860 5861 5861 5861 5861 5862 5862 5863 5863
5858 5857 5857 5857 5857 5857 5857 5857 5857 5857 5857 5856 5856 5856 5856 5856 5856 5856 5856 5856 5856 5856 5856 5856 5856 5856 5856 5856 5856 5856 5856 5857 5857 5857 5858 5859 5859 5859 5859 5859 5860 5860 5861
5856 5856 5855 5855 5855 5855 5855 5855 5855 5855 5854 5854 5854 5854 5854 5854 5854 5854 5853 5853 5853 5853 5853 5853 5853 5854 5854 5854 5854 5854 5854 5854 5855 5855 5856 5856 5856 5856 5856 5857 5857 5858 5858
5854 5854 5854 5853 5853 5853 5853 5853 5852 5852 5852 5852 5852 5852 5851 5851 5851 5851 5851 5851 5851 5851 5851 5851 5851 5851 5851 5851 5851 5851 5851 5852 5852 5853 5853 5853 5854 5854 5854 5854 5855 5855 5856
5853 5852 5852 5851 5851 5851 5850 5850 5850 5850 5850 5849 5849 5849 5849 5849 5849 5849 5849 5849 5848 5848 5848 5848 5848 5848 5848 5848 5848 5848 5848 5849 5849 5850 5850 5850 5851 5851 5851 5852 5852 5853 5853
5851 5850 5850 5849 5849 5849 5848 5848 5848 5848 5847 5847 5847 5847 5846 5846 5846 5846 5846 5846 5846 5845 5845 5845 5845 5845 5845 5845 5845 5845 5846 5846 5846 5847 5847 5847 5848 5848 5848 5849 5849 5850 5850
5849 5848 5848 5847 5847 5846 5846 5846 5845 5845 5845 5845 5845 5844 5844 5844 5844 5844 5843 5843 5843 5843 5843 5843 5842 5842 5842 5842 5842 5842 5843 5843 5843 5844 5844 5844 5845 5845 5845 5846 5846 5847 5847
5847 5846 5846 5845 5844 5844 5844 5843 5843 5843 5843 5843 5842 5842 5841 5841 5841 5841 5841 5840 5840 5840 5840 5840 5839 5839 5839 5839 5839 5839 5840 5840 5840 5841 5841 5841 5842 5842 5842 5843 5843 5844 5844
5845 5844 5843 5843 5842 5842 5842 5841 5841 5841 5840 5840 5840 5839 5839 5839 5838 5838 5838 5837 5837 5836 5836 5836 5836 5836 5836 5836 5836 5836 5836 5836 5837 5837 5838 5838 5838 5839 5839 5840 5840 5841 5841
5843 5842 5841 5841 5840 5840 5839 5839 5839 5838 5838 5838 5837 5837 5836 5836 5836 5835 5835 5834 5834 5833 5833 5833 5832 5832 5832 5832 5832 5832 5833 5833 5833 5834 5834 5834 5835 5835 5836 5837 5837 5838 5838
5840 5839 5839 5838 5838 5838 5837 5837 5837 5836 5836 5835 5834 5834 5833 5833 5833 5832 5832 5831 5831 5830 5830 5829 5829 5829 5829 5829 5829 5829 5829 5829 5830 5830 5830 5831 5831 5832 5833 5833 5834 5835 5835
5838 5837 5836 5836 5836 5835 5835 5835 5834 5834 5833 5833 5832 5831 5831 5831 5830 5829 5829 5828 5828 5827 5827 5826 5826 5826 5825 5825 5825 5825 5825 5826 5826 5826 5827 5827 5828 5829 5829 5830 5831 5831 5832
5835 5835 5834 5834 5833 5833 5832 5832 5832 5831 5830 5830 5829 5829 5828 5828 5827 5827 5826 5826 5825 5824 5824 5823 5823 5822 5822 5822 5822 5822 5822 5822 5823 5823 5823 5824 5824 5825 5825 5826 5827 5828 5828
5833 5832 5832 5832 5831 5831 5830 5829 5829 5828 5828 5827 5827 5826 5826 5825 5825 5824 5823 5823 5822 5821 5820 5820 5819 5819 5819 5819 5818 5818 5818 5819 5819 5820 5820 5820 5821 5821 5822 5823 5823 5824 5824
5830 5830 5829 5829 5829 5828 5827 5827 5826 5825 5825 5824 5824 5823 5823 5822 5822 5821 5820 5820 5819 5818 5817 5816 5816 5816 5815 5815 5815 5815 5815 5816 5816 5816 5816 5817 5817 5817 5818 5819 5820 5820 5821
5828 5827 5827 5826 5826 5825 5825 5824 5823 5823 5822 5822 5821 5820 5820 5820 5819 5818 5817 5816 5815 5815 5814 5813 5813 5812 5812 5812 5811 5812 5811 5812 5812 5813 5813 5813 5813 5813 5814 5815 5816 5816 5817
5825 5824 5824 5823 5823 5822 5822 5821 5821 5820 5820 5819 5818 5818 5817 5816 5816 5815 5814 5813 5812 5811 5811 5810 5809 5809 5809 5808 5808 5808 5808 5808 5808 5809 5809 5809 5809 5809 5810 5811 5811 5812 5812
5821 5821 5820 5820 5820 5819 5819 5818 5817 5817 5816 5816 5815 5815 5814 5813 5812 5811 5811 5810 5809 5808 5807 5807 5806 5806 5805 5805 5805 5804 5804 5804 5804 5805 5805 5805 5805 5805 5806 5806 5807 5807 5807
5818 5817 5817 5817 5816 5816 5816 5815 5814 5814 5813 5812 5812 5811 5810 5810 5809 5808 5807 5806 5805 5804 5804 5803 5803 5802 5802 5801 5801 5801 5800 5800 5800 5800 5800 5801 5801 5801 5801 5801 5802 5802 5803